DW9584 Weather Reports


time (UTC)temp
C
wind
direction
speed
KPH
gust
KPH
rain 1hr
cm
rain 24hr
cm
rain mn
cm
humidity
%
barometer
mb
20260902184503 22 349 0.0 0.0 0.20 1.88 0.25 95 1019.1
20260902183028 22 349 0.0 0.0 0.25 1.88 0.25 94 1019.2
20260902181518 22 349 0.0 0.0 0.20 1.83 0.20 94 1019.0
20260902180014 22 349 0.0 0.0 0.15 1.78 0.15 93 1019.4
20260902174512 22 349 0.0 0.0 0.05 1.68 0.05 92 1019.9
20260902173013 22 349 0.0 0.0 0.00 1.63 0.00 90 1020.4
20260902171511 23 349 0.0 3.2 0.00 1.63 0.00 89 1020.4
20260902170012 23 356 0.0 0.0 0.00 1.63 0.00 90 1020.4
20260902164531 23 1 0.0 3.2 0.00 1.63 0.00 90 1020.4
20260902163026 22 1 0.0 3.2 0.00 1.63 0.00 91 1020.0
20260902161533 22 18 0.0 3.2 0.00 1.63 0.00 90 1020.0
20260902160022 23 18 0.0 3.2 0.00 1.63 0.00 90 1020.0
20260902154515 22 51 0.0 3.2 0.00 1.63 0.00 92 1019.8
20260902153012 22 338 0.0 3.2 0.00 1.63 0.00 93 1020.1
20260902151518 22 338 0.0 3.2 0.00 1.63 0.00 94 1020.2
20260902150008 22 338 1.6 3.2 0.00 1.63 0.00 95 1020.4
20260902144529 21 352 0.0 4.8 0.00 1.63 0.00 96 1020.2
20260902143029 21 360 0.0 3.2 0.00 1.63 0.00 96 1019.9
20260902141532 21 360 0.0 3.2 0.00 1.63 0.00 96 1019.9
20260902140024 21 360 0.0 1.6 0.00 1.63 0.00 96 1020.0
20260902134527 21 360 0.0 3.2 0.00 1.63 0.00 96 1020.2
20260902133017 21 14 0.0 3.2 0.00 1.63 0.00 97 1019.8
20260902131511 20 14 0.0 3.2 0.00 1.63 0.00 97 1019.7
20260902130030 21 347 0.0 3.2 0.00 1.63 0.00 97 1019.6
20260902124531 21 297 0.0 3.2 0.00 1.63 0.00 97 1019.6
20260902123031 20 297 0.0 3.2 0.00 1.63 0.00 97 1019.5
20260902121528 21 297 0.0 3.2 0.00 1.63 0.00 97 1019.2
20260902120029 21 297 0.0 0.0 0.00 1.63 0.00 97 1019.1
20260902114523 21 297 0.0 3.2 0.00 1.63 0.00 97 1019.2
20260902113019 21 297 0.0 0.0 0.00 1.63 0.00 96 1019.4
20260902111515 21 297 0.0 0.0 0.00 1.63 0.00 96 1019.3
20260902110039 21 297 0.0 3.2 0.00 1.63 0.00 96 1019.3
20260902104547 21 297 0.0 3.2 0.00 1.63 0.00 96 1019.2
20260902103032 21 297 0.0 3.2 0.00 1.63 0.00 96 1018.8
20260902101508 21 281 0.0 3.2 0.00 1.63 0.00 96 1018.9
20260902100005 21 340 0.0 1.6 0.00 1.63 0.00 96 1018.8
20260902094504 21 340 0.0 3.2 0.00 1.63 0.00 96 1018.8
20260902093003 21 1 0.0 3.2 0.00 1.63 0.00 96 1018.5
20260902091504 21 1 0.0 0.0 0.00 1.63 0.00 96 1018.4
20260902090020 21 1 0.0 3.2 0.00 1.63 0.00 96 1018.3
20260902084516 21 345 0.0 3.2 0.00 1.63 0.00 96 1018.2
20260902083009 21 345 0.0 0.0 0.00 1.63 0.00 96 1018.1
20260902081511 21 345 0.0 0.0 0.00 1.63 0.00 96 1017.9
20260902080013 21 345 0.0 3.2 0.00 1.63 0.00 96 1018.0
20260902074506 22 345 0.0 0.0 0.00 1.63 0.00 96 1017.9
20260902073004 22 345 0.0 3.2 0.00 1.63 0.00 96 1017.5
20260902071503 22 345 0.0 3.2 0.00 1.63 0.00 96 1017.3
20260902070026 22 345 0.0 0.0 0.00 1.63 0.00 96 1017.2
20260902064520 22 345 0.0 0.0 0.00 1.63 0.00 96 1017.3
20260902063014 22 345 0.0 0.0 0.00 1.63 0.00 96 1017.0
20260902061511 22 345 0.0 0.0 0.00 1.63 0.00 96 1016.8
20260902060010 22 345 0.0 0.0 0.00 1.63 0.00 96 1016.7
20260902054506 22 345 0.0 0.0 0.00 1.63 0.00 96 1017.1
20260902053006 22 345 0.0 0.0 0.00 1.63 0.00 96 1017.3
20260902051528 22 345 0.0 0.0 0.00 1.63 0.00 96 1017.4
20260902050024 22 345 0.0 0.0 0.00 1.63 0.00 96 1017.4
20260902044537 22 345 0.0 0.0 0.00 1.63 0.00 96 1017.3
20260902043020 22 345 0.0 0.0 0.00 1.63 0.00 96 1017.3
20260902041516 22 345 0.0 3.2 0.00 1.63 0.00 96 1017.4
20260902040012 22 345 0.0 0.0 0.00 1.63 0.00 95 1017.1
20260902034511 22 345 0.0 0.0 0.03 1.63 1.63 95 1016.7
20260902033029 22 345 0.0 3.2 0.03 1.63 1.63 95 1016.6
20260902031540 22 345 0.0 3.2 0.03 1.63 1.63 95 1016.8
20260902030027 22 345 0.0 0.0 0.03 1.63 1.63 95 1016.1
20260902024527 22 345 0.0 0.0 0.00 1.60 1.60 95 1015.7
20260902023023 22 345 0.0 3.2 0.00 1.60 1.60 95 1016.0
20260902021525 22 345 0.0 3.2 0.00 1.60 1.60 94 1016.4
20260902020016 22 279 0.0 0.0 0.03 1.60 1.60 94 1016.0
20260902014531 22 279 0.0 3.2 0.91 1.60 1.60 94 1015.8
20260902013029 23 3 0.0 1.6 1.60 1.60 1.60 93 1015.1
20260902011531 22 91 0.0 3.2 1.60 1.60 1.60 92 1014.4
20260902010030 23 168 1.6 8.0 1.57 1.57 1.57 90 1014.7
20260902004504 25 288 1.6 24.1 0.64 0.64 0.64 85 1015.0
20260902003006 27 307 0.0 3.2 0.00 0.00 0.00 87 1013.9
20260902001503 27 307 0.0 0.0 0.00 0.00 0.00 84 1013.5
20260902000004 28 307 0.0 0.0 0.00 0.00 0.00 83 1013.7
20260901234509 28 307 0.0 0.0 0.00 0.00 0.00 81 1013.1
20260901233003 28 307 0.0 0.0 0.00 0.00 0.00 80 1013.1
20260901231504 28 307 0.0 0.0 0.00 0.00 0.00 80 1013.5
20260901230011 29 307 0.0 0.0 0.00 0.00 0.00 78 1013.4
20260901224504 30 307 0.0 0.0 0.00 0.00 0.00 75 1013.4
20260901223005 30 222 0.0 3.2 0.00 0.00 0.00 74 1013.6
20260901221512 30 321 0.0 3.2 0.00 0.00 0.00 73 1013.5
20260901220007 30 238 0.0 3.2 0.00 0.00 0.00 73 1013.4
20260901214504 31 237 0.0 4.8 0.00 0.00 0.00 71 1013.7
20260901213004 31 195 0.0 4.8 0.00 0.00 0.00 70 1013.7
20260901211504 31 228 1.6 4.8 0.00 0.00 0.00 70 1013.7
20260901210012 31 241 0.0 6.4 0.00 0.00 0.00 70 1013.8
20260901204503 31 186 0.0 4.8 0.00 0.00 0.00 71 1013.9
20260901203007 31 78 1.6 9.7 0.00 0.00 0.00 68 1014.0
20260901201521 31 130 1.6 6.4 0.00 0.00 0.00 1014.1
20260901200008 31 312 0.0 6.4 0.00 0.00 0.00 67 1014.1
20260901194508 31 165 0.0 6.4 0.00 0.00 0.00 69 1014.1
20260901193006 31 225 0.0 3.2 0.00 0.00 0.00 68 1014.3
20260901191512 31 321 1.6 8.0 0.00 0.00 0.00 67 1014.4
20260901190011 31 2 0.0 6.4 0.00 0.00 0.00 67 1014.5